User: anonymous
Location: Caltech
(34.1382°N, 118.1253°W)
Time: 17:44:37
(UTC-07:00)
Language:

USA 129 - Orbit

View from above orbital plane
View from above orbital plane
View from above satellite
View from above satellite

Ground track
Ground track

The orbit data is extracted from the following two-line orbital elements,

1 24680U 96072A   14112.85681560 0.00079000  00000-0  36710-3 0    01
2 24680  97.5219 169.7711 0318113 239.9906 120.0093 15.35907724    00
Epoch (UTC): 22 April 2014 20:33:48
Eccentricity: 0.0318113
inclination: 97.5219°
perigee height: 241 km
apogee height: 676 km
right ascension of ascending node: 169.7711°
argument of perigee: 239.9906°
revolutions per day: 15.35907724
mean anomaly at epoch: 120.0093°
orbit number at epoch: 0

The dashed part of the orbit path shows where the satellite is in the earth's shadow,  

DLR